TimeCDT,TemperatureF,Dew PointF,Humidity,Sea Level PressureIn,VisibilityMPH,Wind Direction,Wind SpeedMPH,Gust SpeedMPH,PrecipitationIn,Events,Conditions,WindDirDegrees,DateUTC
12:53 AM,69.1,62.1,78,30.01,10.0,SSE,10.4,-,N/A,,Clear,150,2013-05-08 05:53:00
1:53 AM,69.1,63.0,81,29.99,10.0,SE,9.2,-,N/A,,Clear,130,2013-05-08 06:53:00
2:53 AM,69.1,64.0,84,29.99,10.0,SSE,5.8,-,N/A,,Clear,160,2013-05-08 07:53:00
3:53 AM,68.0,64.0,87,29.98,10.0,SSE,6.9,-,N/A,,Clear,150,2013-05-08 08:53:00
4:23 AM,69.8,64.4,83,29.98,10.0,SSE,5.8,-,N/A,,Mostly Cloudy,150,2013-05-08 09:23:00
4:39 AM,69.8,64.4,83,29.97,10.0,SSE,6.9,-,N/A,,Scattered Clouds,150,2013-05-08 09:39:00
4:53 AM,68.0,64.9,90,29.97,10.0,SE,6.9,-,N/A,,Partly Cloudy,140,2013-05-08 09:53:00
5:53 AM,69.1,64.9,87,29.98,10.0,SSE,8.1,-,N/A,,Clear,160,2013-05-08 10:53:00
6:53 AM,70.0,64.9,84,30.01,10.0,SSE,5.8,-,N/A,,Scattered Clouds,160,2013-05-08 11:53:00
7:01 AM,69.8,66.2,88,30.02,10.0,SSE,6.9,-,N/A,,Mostly Cloudy,160,2013-05-08 12:01:00
7:17 AM,69.8,66.2,88,30.01,10.0,SSE,6.9,-,N/A,,Scattered Clouds,150,2013-05-08 12:17:00
7:53 AM,71.1,66.0,84,30.02,10.0,SSE,8.1,-,N/A,,Partly Cloudy,160,2013-05-08 12:53:00
8:53 AM,73.0,64.9,76,30.04,10.0,South,10.4,-,N/A,,Clear,170,2013-05-08 13:53:00
9:34 AM,75.2,64.4,69,30.05,10.0,SSE,15.0,18.4,N/A,,Mostly Cloudy,160,2013-05-08 14:34:00
9:41 AM,75.2,64.4,69,30.05,10.0,South,12.7,-,N/A,,Scattered Clouds,180,2013-05-08 14:41:00
9:53 AM,75.0,64.0,69,30.06,10.0,South,11.5,-,N/A,,Partly Cloudy,180,2013-05-08 14:53:00
10:53 AM,75.9,63.0,64,30.07,10.0,South,12.7,-,N/A,,Mostly Cloudy,170,2013-05-08 15:53:00
11:53 AM,78.1,62.1,58,30.06,10.0,SSE,15.0,-,N/A,,Scattered Clouds,160,2013-05-08 16:53:00
12:53 PM,79.0,62.1,56,30.05,10.0,SSE,12.7,19.6,N/A,,Clear,160,2013-05-08 17:53:00
1:53 PM,79.0,63.0,58,30.02,10.0,SSE,16.1,23.0,N/A,,Clear,160,2013-05-08 18:53:00
2:53 PM,79.0,63.0,58,30.01,10.0,SSE,13.8,21.9,N/A,,Clear,150,2013-05-08 19:53:00
3:37 PM,78.8,62.6,57,30.00,10.0,SE,17.3,25.3,N/A,,Partly Cloudy,130,2013-05-08 20:37:00
3:53 PM,79.0,64.0,60,29.99,10.0,SE,17.3,23.0,N/A,,Clear,140,2013-05-08 20:53:00
4:53 PM,79.0,64.0,60,29.97,10.0,SE,17.3,-,N/A,,Clear,140,2013-05-08 21:53:00
5:53 PM,77.0,64.0,64,29.97,10.0,SE,16.1,-,N/A,,Partly Cloudy,140,2013-05-08 22:53:00
6:33 PM,75.2,64.4,69,29.97,10.0,SE,18.4,-,N/A,,Mostly Cloudy,130,2013-05-08 23:33:00
6:53 PM,73.9,64.9,73,29.97,10.0,SE,16.1,23.0,N/A,,Mostly Cloudy,140,2013-05-08 23:53:00
7:45 PM,73.4,64.4,73,29.97,10.0,SE,12.7,-,N/A,,Scattered Clouds,130,2013-05-09 00:45:00
7:53 PM,73.0,64.9,76,29.97,10.0,SE,19.6,-,N/A,,Scattered Clouds,130,2013-05-09 00:53:00
8:12 PM,73.4,66.2,78,29.97,10.0,SE,15.0,-,N/A,,Mostly Cloudy,130,2013-05-09 01:12:00
8:50 PM,71.6,66.2,83,29.97,10.0,SE,16.1,21.9,N/A,,Scattered Clouds,130,2013-05-09 01:50:00
8:53 PM,72.0,66.0,81,29.97,10.0,SE,11.5,21.9,N/A,,Partly Cloudy,130,2013-05-09 01:53:00
9:53 PM,72.0,66.9,84,29.97,10.0,SE,12.7,-,N/A,,Clear,130,2013-05-09 02:53:00
10:53 PM,72.0,68.0,87,29.98,10.0,SE,13.8,-,N/A,,Clear,130,2013-05-09 03:53:00
11:31 PM,73.4,68.0,83,29.98,10.0,SE,16.1,-,N/A,,Mostly Cloudy,140,2013-05-09 04:31:00
11:53 PM,73.0,68.0,84,29.99,10.0,SE,15.0,-,N/A,,Overcast,140,2013-05-09 04:53:00